Overview Statistics Trail Chart Weather Telemetry Raw packets
 

This is the latest recevied weather packets stored in our database for station/object AB4BJ-10. If no packets are shown the sender has not sent any weather packets the latest 10 day(s).

<< 92 93 94 95 96 97 98 >>
Time Temp. Humidity Pressure Rain* Wind** Luminosity Snow
1787952202 31.11° C 60% 1011.5 hPa 0 mm - - -
1787951900 31.11° C 60% 1011.5 hPa 0 mm - - -
1787950163 31.67° C 59% 1011.4 hPa 0 mm - - -
1787950102 31.67° C 59% 1011.4 hPa 0 mm - - -
1787949802 31.67° C 59% 1011.5 hPa 0 mm - - -
1787949499 31.67° C 58% 1011.4 hPa 0 mm - - -
1787948597 31.67° C 58% 1011.5 hPa 0 mm - - -
1787948390 31.67° C 58% 1011.5 hPa 0 mm - - -
1787948296 31.67° C 58% 1011.5 hPa 0 mm - - -
1787947996 31.67° C 56% 1011.6 hPa 0 mm - - -
1787947696 31.67° C 54% 1011.7 hPa 0 mm - - -
1787947395 31.67° C 58% 1011.7 hPa 0 mm - - -
1787947095 31.67° C 61% 1011.8 hPa 0 mm - - -
1787946795 32.22° C 59% 1011.9 hPa 0 mm - - -
1787946547 32.22° C 57% 1012 hPa 0 mm - - -
1787946495 32.22° C 57% 1012 hPa 0 mm - - -
1787946194 32.78° C 58% 1012 hPa 0 mm - - -
1787945594 32.78° C 56% 1012.3 hPa 0 mm - - -
1787945294 32.22° C 56% 1012.3 hPa 0 mm - - -
1787944693 31.67° C 58% 1012.4 hPa 0 mm - - -
1787944393 31.11° C 61% 1012.5 hPa 0 mm - - -
1787944092 31.11° C 59% 1012.5 hPa 0 mm - - -
1787943492 31.11° C 59% 1012.7 hPa 0 mm - - -
1787943192 31.67° C 63% 1012.6 hPa 0 mm - - -
1787942891 31.67° C 59% 1012.7 hPa 0 mm - - -

* Rain latest hour (hover to see other rain measurements)
** Current wind speed in m/s (hover to see current wind gust speed)